Weather History for Key West NAF, FL

Change the Weather History Date:

Friday, April 12, 2013

  Actual Average Record
Temperature  
Mean Temperature 80 °F -  
Max Temperature 84 °F 81 °F 87 °F (1953)
Min Temperature 77 °F 71 °F 62 °F (1987)
Cooling Degree Days 16    
Growing Degree Days 30 (Base 50)    
Moisture  
Dew Point 75 °F    
Average Humidity 83    
Maximum Humidity 90    
Minimum Humidity 74    
Precipitation  
Precipitation 0.00 in - - ()
Sea Level Pressure  
Sea Level Pressure 29.92 in    
Wind  
Wind Speed 10 mph (SSE)    
Max Wind Speed 16 mph    
Max Gust Speed 24 mph    
Visibility 10 miles    
Events      
Averages and records for this station are not official NWS values.
T = Trace of Precipitation, MM = Missing Value Source: NWS Daily Summary

Daily Weather History Graph

Daily Weather History Graph

Search for Another Location

Airport:

Trip Planner

Search our weather history database for the weather conditions in past years. The results will help you decide how hot, cold, wet, or windy it might be!

Date:

Astronomy

Apr. 12, 2013 Rise Set
Actual Time 7:07 AM EDT 7:47 PM EDT
Civil Twilight 6:44 AM EDT 8:10 PM EDT
Nautical Twilight 6:17 AM EDT 8:38 PM EDT
Astronomical Twilight 5:49 AM EDT 9:05 PM EDT
Moon 8:29 AM EDT (4/12) 10:01 PM EDT (4/12)
Length of Visible Light 13h 26m
Length of Day
12h 40m
Waxing Crescent, 5% of the Moon is Illuminated
Apr 12
Waxing Crescent
Apr 18
First Quarter
Apr 25
Full
May 2
Last Quarter
May 9
New

Hourly Weather History & Observations

Time (EDT) Temp. Heat Index Dew Point Humidity Pressure Visibility Wind Dir Wind Speed Gust Speed Precip Events Conditions
12:53 AM 79.0 °F - 75.0 °F 88% 29.88 in 10.0 mi SSE 13.8 mph 24.2 mph N/A   Clear
1:53 AM 78.1 °F - 75.0 °F 90% 29.87 in 10.0 mi SSE 16.1 mph 23.0 mph N/A   Clear
2:53 AM 78.1 °F - 75.0 °F 90% 29.88 in 10.0 mi SSE 11.5 mph - N/A   Clear
3:53 AM 78.1 °F - 73.9 °F 87% 29.89 in 10.0 mi South 6.9 mph - N/A   Clear
4:53 AM 77.0 °F - 73.9 °F 90% 29.90 in 10.0 mi South 4.6 mph - N/A   Clear
5:53 AM 77.0 °F - 73.9 °F 90% 29.91 in 10.0 mi South 3.5 mph - N/A   Scattered Clouds
6:53 AM 77.0 °F - 73.9 °F 90% 29.92 in 10.0 mi SSE 6.9 mph - N/A   Scattered Clouds
7:53 AM 78.1 °F - 73.9 °F 87% 29.93 in 10.0 mi SSE 6.9 mph - N/A   Scattered Clouds
8:53 AM 80.1 °F 85.1 °F 75.0 °F 85% 29.94 in 10.0 mi SSE 8.1 mph - N/A   Scattered Clouds
9:53 AM 82.0 °F 88.6 °F 75.0 °F 79% 29.94 in 10.0 mi SSE 12.7 mph - N/A   Scattered Clouds
10:53 AM 84.0 °F 91.9 °F 75.0 °F 74% 29.96 in 10.0 mi SSE 10.4 mph - N/A   Scattered Clouds
11:53 AM 84.0 °F 92.6 °F 75.9 °F 76% 29.95 in 10.0 mi SSE 10.4 mph - N/A   Scattered Clouds
12:53 PM 84.9 °F 94.1 °F 75.9 °F 74% 29.94 in 10.0 mi SSE 11.5 mph - N/A   Scattered Clouds
1:53 PM 84.0 °F 91.9 °F 75.0 °F 74% 29.93 in 10.0 mi SSE 11.5 mph - N/A   Scattered Clouds
2:53 PM 84.0 °F 91.9 °F 75.0 °F 74% 29.91 in 10.0 mi SE 11.5 mph - N/A   Scattered Clouds
3:53 PM 84.0 °F 91.9 °F 75.0 °F 74% 29.90 in 10.0 mi SSE 11.5 mph - N/A   Scattered Clouds
4:53 PM 82.9 °F 90.2 °F 75.0 °F 77% 29.89 in 10.0 mi SE 10.4 mph - N/A   Scattered Clouds
5:53 PM 82.9 °F 89.4 °F 73.9 °F 74% 29.89 in 10.0 mi ESE 10.4 mph - N/A   Scattered Clouds
6:53 PM 82.0 °F 87.9 °F 73.9 °F 76% 29.90 in 10.0 mi ESE 9.2 mph - N/A   Scattered Clouds
7:53 PM 80.1 °F 85.1 °F 75.0 °F 85% 29.92 in 10.0 mi East 6.9 mph - N/A   Mostly Cloudy
8:53 PM 80.1 °F 85.4 °F 75.9 °F 87% 29.94 in 10.0 mi ESE 9.2 mph - N/A   Overcast
9:53 PM 79.0 °F - 75.9 °F 90% 29.95 in 10.0 mi SE 5.8 mph - N/A   Scattered Clouds
10:53 PM 79.0 °F - 75.9 °F 90% 29.97 in 10.0 mi SE 5.8 mph - N/A   Partly Cloudy
11:53 PM 79.0 °F - 75.0 °F 88% 29.97 in 10.0 mi SE 5.8 mph - N/A   Mostly Cloudy